Oxford, MS

3:56 PM CDT on September 20, 2019 (GMT -0500)
University-Oxford

Weather History for KUOX - July, 2019

Change the Weather History Date:

Tuesday, July 9, 2019

  Actual Average Record
Temperature  
Mean Temperature 86 °F -  
Max Temperature 93 °F 91 °F 100 °F (1990)
Min Temperature 78 °F 69 °F 57 °F (1961)
Cooling Degree Days 20    
Growing Degree Days 36 (Base 50)    
Moisture  
Dew Point 74 °F    
Average Humidity 66    
Maximum Humidity 94    
Minimum Humidity 46    
Precipitation  
Precipitation 0.00 in - - ()
Sea Level Pressure  
Sea Level Pressure 29.98 in    
Wind  
Wind Speed 4 mph (NW)    
Max Wind Speed 12 mph    
Max Gust Speed -    
Visibility 9 miles    
Events      
Averages and records for this station are not official NWS values.
T = Trace of Precipitation, MM = Missing Value Source: NWS Daily Summary

Daily Weather History Graph

Daily Weather History Graph

Search for Another Location

Airport or City:

Astronomy

Jul. 09, 2019 Rise Set
Actual Time 5:53 AM CDT 8:13 PM CDT
Civil Twilight 5:24 AM CDT 8:42 PM CDT
Nautical Twilight 4:48 AM CDT 9:17 PM CDT
Astronomical Twilight 4:09 AM CDT 9:56 PM CDT
Moon 1:24 PM CDT (7/9) 12:47 AM CDT (7/9)
Length of Visible Light 15h 17m
Length of Day
14h 19m
First Quarter, 53% of the Moon is Illuminated
Jul 9
First Quarter
Jul 16
Full
Jul 24
Last Quarter
Jul 31
New
Aug 7
First Quarter

Hourly Weather History & Observations

Time (CDT) Temp. Heat Index Dew Point Humidity Pressure Visibility Wind Dir Wind Speed Gust Speed Precip Events Conditions
10:15 AM 87.8 °F 95.6 °F 73.4 °F 62% 30.02 in 9.0 mi NW 6.9 mph - N/A   Clear
10:35 AM 87.8 °F 95.6 °F 73.4 °F 62% 30.01 in 9.0 mi Variable 5.8 mph - N/A   Partly Cloudy
10:55 AM 87.8 °F 95.6 °F 73.4 °F 62% 30.01 in 9.0 mi WNW 5.8 mph - N/A   Mostly Cloudy
11:15 AM 89.6 °F 98.2 °F 73.4 °F 59% 30.01 in 9.0 mi Calm Calm - N/A   Mostly Cloudy
11:35 AM 87.8 °F 93.8 °F 71.6 °F 58% 30.01 in 10.0 mi Calm Calm - N/A   Partly Cloudy
11:55 AM 89.6 °F 96.2 °F 71.6 °F 55% 30.00 in 9.0 mi Variable 4.6 mph - N/A   Clear
12:15 PM 91.4 °F 100.1 °F 73.4 °F 55% 30.00 in 9.0 mi Calm Calm - N/A   Clear
12:35 PM 91.4 °F 98.4 °F 71.6 °F 52% 30.01 in 9.0 mi WNW 8.1 mph - N/A   Scattered Clouds
12:55 PM 91.4 °F 100.1 °F 73.4 °F 55% 30.00 in 8.0 mi WNW 11.5 mph - N/A   Scattered Clouds
1:15 PM 89.6 °F 98.2 °F 73.4 °F 59% 30.00 in 9.0 mi WNW 6.9 mph - N/A   Scattered Clouds
1:35 PM 89.6 °F 98.2 °F 73.4 °F 59% 29.99 in 9.0 mi West 8.1 mph - N/A   Partly Cloudy
1:55 PM 91.4 °F 100.1 °F 73.4 °F 55% 29.99 in 9.0 mi Calm Calm - N/A   Clear
2:15 PM 89.6 °F 99.8 °F 75.2 °F 62% 29.98 in 9.0 mi ESE 8.1 mph - N/A   Clear
2:35 PM 91.4 °F 100.1 °F 73.4 °F 55% 29.97 in 9.0 mi Calm Calm - N/A   Clear
2:55 PM 91.4 °F 100.1 °F 73.4 °F 55% 29.96 in 9.0 mi Calm Calm - N/A   Partly Cloudy
3:15 PM 93.2 °F 102.4 °F 73.4 °F 52% 29.96 in 9.0 mi Variable 5.8 mph - N/A   Partly Cloudy
3:35 PM 93.2 °F 102.4 °F 73.4 °F 52% 29.96 in 9.0 mi NNW 6.9 mph - N/A   Partly Cloudy
3:55 PM 93.2 °F 102.4 °F 73.4 °F 52% 29.96 in 10.0 mi NNW 5.8 mph - N/A   Partly Cloudy
4:15 PM 93.2 °F 98.8 °F 69.8 °F 46% 29.95 in 9.0 mi Variable 6.9 mph - N/A   Clear
4:35 PM 93.2 °F 100.5 °F 71.6 °F 49% 29.94 in 10.0 mi Calm Calm - N/A   Clear
4:55 PM 93.2 °F 100.5 °F 71.6 °F 49% 29.94 in 10.0 mi Variable 5.8 mph - N/A   Clear
5:15 PM 93.2 °F 100.5 °F 71.6 °F 49% 29.95 in 9.0 mi West 6.9 mph - N/A   Clear
5:35 PM 93.2 °F 100.5 °F 71.6 °F 49% 29.95 in 9.0 mi NW 5.8 mph - N/A   Clear
6:35 PM 91.4 °F 100.1 °F 73.4 °F 55% 29.95 in 9.0 mi North 4.6 mph - N/A   Clear
7:15 PM 89.6 °F 98.2 °F 73.4 °F 59% 29.95 in 10.0 mi Calm Calm - N/A   Clear
7:35 PM 87.8 °F 97.6 °F 75.2 °F 66% 29.96 in 10.0 mi Calm Calm - N/A   Clear
7:55 PM 86.0 °F 96.9 °F 77.0 °F 74% 29.97 in 10.0 mi Calm Calm - N/A   Clear
8:15 PM 84.2 °F 94.1 °F 77.0 °F 79% 29.97 in 10.0 mi Calm Calm - N/A   Clear
8:35 PM 84.2 °F 94.1 °F 77.0 °F 79% 29.97 in 10.0 mi Calm Calm - N/A   Clear
8:55 PM 82.4 °F 90.9 °F 77.0 °F 84% 29.98 in 10.0 mi Calm Calm - N/A   Clear
9:15 PM 80.6 °F 87.1 °F 77.0 °F 89% 29.98 in 10.0 mi Calm Calm - N/A   Clear
9:35 PM 80.6 °F 87.1 °F 77.0 °F 89% 29.99 in 10.0 mi Calm Calm - N/A   Clear
9:55 PM 80.6 °F 87.1 °F 77.0 °F 89% 29.99 in 9.0 mi Calm Calm - N/A   Clear
10:15 PM 80.6 °F 87.1 °F 77.0 °F 89% 29.98 in 10.0 mi North 3.5 mph - N/A   Clear
10:35 PM 78.8 °F - 77.0 °F 94% 29.98 in 10.0 mi Calm Calm - N/A   Clear
10:55 PM 78.8 °F - 77.0 °F 94% 29.98 in 9.0 mi Calm Calm - N/A   Clear
11:15 PM 78.8 °F - 77.0 °F 94% 30.00 in 10.0 mi Calm Calm - N/A   Clear
11:35 PM 78.8 °F - 77.0 °F 94% 30.00 in 10.0 mi Calm Calm - N/A   Clear
11:55 PM 78.8 °F - 77.0 °F 94% 30.00 in 9.0 mi Calm Calm - N/A   Clear